Weather History for GMFO - November, 2011

Change the Weather History Date:

Friday, November 18, 2011

  Actual Average Record
Temperature  
Mean Temperature 56 °F -  
Max Temperature 62 °F 62 °F 75 °F (1998)
Min Temperature 50 °F 43 °F 37 °F (1999)
Degree Days  
Heating Degree Days 9    
Growing Degree Days 6 (Base 50)    
Moisture  
Dew Point 52 °F    
Average Humidity 80    
Maximum Humidity 100    
Minimum Humidity 60    
Precipitation  
Precipitation 0.00 in 0.06 in - ()
Sea Level Pressure  
Sea Level Pressure 30.05 in    
Wind  
Wind Speed 6 mph ()    
Max Wind Speed 14 mph    
Max Gust Speed -    
Visibility 6.8 miles    
Events Rain    
Averages and records for this station are not official NWS values.
T = Trace of Precipitation, MM = Missing Value Source: Averaged Metar Reports

Daily Weather History Graph

Daily Weather History Graph

Search for Another Location

Airport or City:

Trip Planner

Search our weather history database for the weather conditions in past years. The results will help you decide how hot, cold, wet, or windy it might be!

Date:

Astronomy

Nov. 18, 2011 Rise Set
Actual Time 6:44 AM WET 5:01 PM WET
Civil Twilight 6:17 AM WET 5:28 PM WET
Nautical Twilight 5:46 AM WET 5:58 PM WET
Astronomical Twilight 5:16 AM WET 6:28 PM WET
Moon No Moon Rise 12:22 PM WET (11/18)
Length of Visible Light 11h 10m
Length of Day
10h 16m
Waning Gibbous, 51% of the Moon is Illuminated
Nov 18
Waning Gibbous
Nov 18
Last Quarter
Nov 25
New
Dec 2
First Quarter
Dec 10
Full

Hourly Weather History & Observations

Time (WET) Temp. Dew Point Humidity Pressure Visibility Wind Dir Wind Speed Gust Speed Precip Events Conditions
12:00 AM 51.8 °F 50.0 °F 94% 30.12 in 6.2 mi WSW 4.6 mph - N/A   Mostly Cloudy
1:00 AM 51.8 °F 50.0 °F 94% 30.09 in 6.2 mi WSW 3.5 mph - N/A   Mostly Cloudy
2:00 AM 51.8 °F 51.8 °F 100% 30.09 in 6.2 mi WSW 4.6 mph - N/A   Mostly Cloudy
2:45 AM 53 °F 52 °F 96% 30.09 in 9 mi SSW 4.6 mph - -   Scattered Clouds
3:00 AM 53.6 °F 51.8 °F 94% 30.09 in 6.2 mi SSW 4.6 mph - N/A   Mostly Cloudy
5:00 AM 53.6 °F 51.8 °F 94% 30.06 in 6.2 mi Calm Calm - N/A   Unknown
7:00 AM 50.0 °F 50.0 °F 100% 30.06 in 6.2 mi South 3.5 mph - N/A   Mostly Cloudy
9:00 AM 60 °F 54 °F 74% 30.08 in 6 mi WSW 9.2 mph - -   Scattered Clouds
9:00 AM 60.8 °F 53.6 °F 77% 30.09 in 6.2 mi WSW 9.2 mph - N/A   Mostly Cloudy
10:00 AM 60.8 °F 51.8 °F 72% 30.09 in 6.2 mi Variable 2.3 mph - N/A   Mostly Cloudy
11:00 AM 62.6 °F 51.8 °F 68% 30.09 in 6.2 mi WSW 13.8 mph - N/A   Mostly Cloudy
12:00 PM 62 °F 53 °F 65% 30.06 in 9 mi SW 10.4 mph - -   Overcast
12:00 PM 60.8 °F 53.6 °F 77% 30.09 in 6.2 mi SW 10.4 mph - N/A   Mostly Cloudy
1:00 PM 60.8 °F 53.6 °F 77% 30.06 in 6.2 mi WSW 4.6 mph - N/A Rain Light Rain
2:00 PM 60.8 °F 53.6 °F 77% 30.04 in 6.2 mi South 4.6 mph - N/A   Mostly Cloudy
3:00 PM 62 °F 55 °F 70% 29.99 in 9 mi SSW 6.9 mph - -   Overcast
3:00 PM 62.6 °F 55.4 °F 77% 30.01 in 6.2 mi SSW 6.9 mph - N/A   Mostly Cloudy
5:00 PM 60.8 °F 51.8 °F 72% 30.01 in 6.2 mi SSW 6.9 mph - N/A   Mostly Cloudy
6:00 PM 60 °F 50 °F 60% 29.99 in 9 mi SW 13.8 mph - -   Overcast
6:00 PM 60.8 °F 50.0 °F 68% 30.01 in 6.2 mi SW 13.8 mph - N/A   Mostly Cloudy
8:00 PM 57.2 °F 51.8 °F 82% 30.01 in 6.2 mi SW 4.6 mph - N/A   Mostly Cloudy
9:00 PM 58 °F 52 °F 74% 30.00 in 9 mi West 9.2 mph - -   Partly Cloudy
9:00 PM 57.2 °F 51.8 °F 82% 30.01 in 6.2 mi West 9.2 mph - N/A   Mostly Cloudy
10:00 PM 57.2 °F 51.8 °F 82% 30.01 in 6.2 mi SW 5.8 mph - N/A   Scattered Clouds
11:00 PM 55.4 °F 50.0 °F 82% 30.01 in 6.2 mi SW 10.4 mph - N/A   Scattered Clouds